Location: Burleson Alternative School
(32.5290°N, 97.3406°W)
Time: 10:46:54
(UTC+00:00)

Vanguard 2 Rocket - Pass Details

Date: 09 November 2025
Orbit: 553 x 3287 km, 32.9° (Epoch: 07 December)

Event Time Altitude Azimuth Distance (km) Brightness Sun altitude
Exits shadow 10:53:48 13° 231° (SW) 5,538 10.5 -25.5°
Maximum altitude 10:57:21 14° 219° (SW) 5,629 10.6 -24.8°
Drops below altitude 10° 11:05:08 10° 195° (SSW) 6,181 11.0 -23.2°
Sets 11:14:25 0° 173° (S) 7,223 11.7 -21.2°
